TimeCDT,TemperatureF,Dew PointF,Humidity,Sea Level PressureIn,VisibilityMPH,Wind Direction,Wind SpeedMPH,Gust SpeedMPH,PrecipitationIn,Events,Conditions,WindDirDegrees,DateUTC
12:53 AM,57.9,41.0,53,29.80,10.0,NNW,12.7,19.6,N/A,,Clear,330,2013-05-15 05:53:00
1:53 AM,55.9,41.0,57,29.81,10.0,NW,8.1,-,N/A,,Clear,320,2013-05-15 06:53:00
2:53 AM,53.1,41.0,64,29.82,10.0,NW,5.8,-,N/A,,Clear,320,2013-05-15 07:53:00
3:53 AM,52.0,41.0,66,29.83,10.0,West,3.5,-,N/A,,Clear,280,2013-05-15 08:53:00
4:53 AM,50.0,41.0,71,29.86,10.0,WSW,9.2,-,N/A,,Clear,250,2013-05-15 09:53:00
5:53 AM,48.0,39.9,74,29.89,10.0,West,3.5,-,N/A,,Clear,260,2013-05-15 10:53:00
6:53 AM,53.1,43.0,69,29.92,10.0,WSW,5.8,-,N/A,,Clear,240,2013-05-15 11:53:00
7:53 AM,55.9,44.1,64,29.91,10.0,WSW,4.6,-,N/A,,Clear,240,2013-05-15 12:53:00
8:53 AM,63.0,43.0,48,29.91,10.0,WSW,6.9,-,N/A,,Clear,240,2013-05-15 13:53:00
9:53 AM,70.0,42.1,36,29.90,10.0,WSW,11.5,-,N/A,,Clear,250,2013-05-15 14:53:00
10:53 AM,73.0,41.0,31,29.89,10.0,West,16.1,-,N/A,,Clear,260,2013-05-15 15:53:00
11:53 AM,75.9,39.9,27,29.88,8.0,West,11.5,19.6,N/A,,Clear,260,2013-05-15 16:53:00
12:53 PM,78.1,37.0,23,29.87,10.0,West,11.5,-,N/A,,Scattered Clouds,260,2013-05-15 17:53:00
1:53 PM,80.1,34.0,19,29.86,10.0,NW,10.4,23.0,N/A,,Scattered Clouds,310,2013-05-15 18:53:00
2:53 PM,80.1,36.0,20,29.85,10.0,West,15.0,-,N/A,,Mostly Cloudy,270,2013-05-15 19:53:00
3:53 PM,79.0,35.1,20,29.84,10.0,West,12.7,-,N/A,,Scattered Clouds,270,2013-05-15 20:53:00
4:53 PM,77.0,37.0,24,29.83,10.0,West,9.2,-,N/A,,Mostly Cloudy,280,2013-05-15 21:53:00
5:53 PM,77.0,39.0,25,29.83,10.0,West,13.8,20.7,N/A,,Mostly Cloudy,280,2013-05-15 22:53:00
6:53 PM,75.9,42.1,30,29.81,10.0,WSW,9.2,-,N/A,,Partly Cloudy,240,2013-05-15 23:53:00
7:53 PM,75.9,37.0,24,29.80,10.0,WNW,9.2,-,N/A,,Clear,290,2013-05-16 00:53:00
8:53 PM,68.0,39.0,35,29.81,6.0,SW,4.6,-,N/A,,Haze,230,2013-05-16 01:53:00
9:53 PM,64.0,43.0,46,29.82,10.0,SW,10.4,-,N/A,,Clear,230,2013-05-16 02:53:00
10:53 PM,62.1,39.0,43,29.83,10.0,West,5.8,-,N/A,,Clear,260,2013-05-16 03:53:00
11:53 PM,60.1,39.9,47,29.85,10.0,NW,5.8,-,N/A,,Clear,320,2013-05-16 04:53:00